Location: New York
(40.7140°N, 74.0060°W)
Time: 21:04:45
(UTC-04:00)

ISS - Visible Passes

Search period start: 23 July 2016 00:00
Search period end: 02 August 2016 00:00
Orbit: 401 x 404 km, 51.6° (Epoch: 23 July)

Date Brightness Start Highest point End Pass type
(mag) Time Alt. Az. Time Alt. Az. Time Alt. Az.
23 Jul -0.1 01:07:17 14° NNE 01:07:17 14° NNE 01:08:01 10° NNE visible
23 Jul -0.1 02:41:29 10° NNW 02:42:54 12° N 02:44:19 10° NNE visible
23 Jul -0.5 04:17:46 10° NNW 04:20:17 20° NNE 04:22:49 10° ENE visible
24 Jul -0.1 01:48:33 11° NNW 01:49:39 13° N 01:51:13 10° NNE visible
24 Jul -0.2 03:25:01 10° NNW 03:27:07 16° NNE 03:29:12 10° NE visible
24 Jul -2.6 05:00:52 10° NW 05:04:05 57° NNE 05:07:18 10° ESE visible
25 Jul 0.0 00:57:09 14° N 00:57:09 14° N 00:58:22 10° NNE visible
25 Jul 0.0 02:32:14 10° NNW 02:33:55 13° N 02:35:35 10° NE visible
25 Jul -1.5 04:08:05 10° NW 04:11:05 33° NNE 04:14:05 10° E visible
25 Jul -3.2 22:23:09 10° SW 22:25:58 64° WSW 22:25:58 64° WSW visible
26 Jul -0.1 00:05:24 11° NNE 00:05:24 11° NNE 00:05:38 10° NNE visible
26 Jul 0.1 01:39:14 10° NNW 01:40:39 12° N 01:42:05 10° NNE visible
26 Jul -0.7 03:15:22 10° NNW 03:18:00 22° NNE 03:20:39 10° ENE visible
26 Jul -3.4 04:51:27 10° WNW 04:54:40 60° SW 04:57:52 10° SE visible
26 Jul -3.1 21:30:26 10° SSW 21:33:33 45° SE 21:36:41 10° ENE visible
26 Jul -1.0 23:07:19 10° W 23:10:06 25° NNW 23:12:54 10° NE visible
27 Jul 0.1 00:45:55 10° NNW 00:47:23 12° N 00:48:53 10° NNE visible
27 Jul -0.3 02:22:38 10° NNW 02:24:51 17° NNE 02:27:04 10° ENE visible
27 Jul -3.1 03:58:30 10° NW 04:01:46 68° NE 04:05:00 10° ESE visible
27 Jul -1.9 22:13:57 10° WSW 22:17:02 40° NNW 22:20:09 10° NE visible
27 Jul 0.0 23:52:19 10° NW 23:54:09 14° N 23:55:58 10° NNE visible
28 Jul 0.1 01:29:52 10° NNW 01:35:02 - ENE 01:30:11 11° NNW visible
28 Jul -1.9 03:08:11 34° N 03:08:47 38° NNE 03:11:50 10° E visible
28 Jul -2.3 04:42:22 10° WNW 04:45:05 24° SW 04:47:48 10° S visible
28 Jul -3.1 21:20:49 10° WSW 21:24:04 73° NW 21:27:19 10° NE visible
28 Jul -0.3 22:58:41 10° WNW 23:00:57 17° NNW 23:03:13 10° NNE visible
29 Jul 0.1 00:36:56 10° NNW 00:38:15 12° N 00:38:15 12° N visible
29 Jul -0.8 22:05:07 10° WNW 22:07:47 23° NNW 22:10:29 10° NNE visible
29 Jul 0.0 23:43:42 10° NNW 23:45:08 12° N 23:46:34 10° NNE visible
30 Jul -1.5 21:11:42 10° W 21:14:42 34° NNW 21:17:44 10° NE visible
30 Jul -0.1 22:50:10 10° NW 22:51:53 13° N 22:53:35 10° NNE visible
31 Jul 0.1 00:27:28 10° NNW 00:28:03 12° NNW 00:28:03 12° NNW visible
31 Jul -0.3 21:56:31 10° NW 21:58:39 16° NNW 22:00:48 10° NNE visible
31 Jul -0.2 23:34:35 10° NNW 23:36:07 13° N 23:36:44 12° NNE visible
01 Aug -0.7 21:02:54 10° WNW 21:05:28 21° NNW 21:08:03 10° NNE visible
01 Aug -0.2 22:41:26 10° NNW 22:42:52 12° N 22:44:15 10° NNE visible
